LKKB Weather Reports


time (UTC)temp
F
wind
direction
speed
knots
gust
knots
rain 1hr
in
rain 24hr
in
rain mn
in
humidity
%
barometer
mb
20260901073103 64 250 13.0 0.0 0.00 0.00 0.00 67 1020.0
20260901072052 64 250 12.2 0.0 0.00 0.00 0.00 67
20260901070211 64 240 13.0 0.0 0.00 0.00 0.00 72 1020.0
20260901063210 63 230 7.0 0.0 0.00 0.00 0.00 77 1020.0
20260901061851 63 220 7.8 0.0 0.00 0.00 0.00 72
20260901053102 61 200 7.0 0.0 0.00 0.00 0.00 77 1019.0
20260901051951 61 230 10.4 0.0 0.00 0.00 0.00 77
20260901043102 59 220 6.1 0.0 0.00 0.00 0.00 82 1019.0
20260901042151 61 230 7.8 0.0 0.00 0.00 0.00 77
20260901033103 59 230 7.8 0.0 0.00 0.00 0.00 82 1018.0
20260901031851 61 230 7.8 0.0 0.00 0.00 0.00 72
20260901030103 59 230 8.7 0.0 0.00 0.00 0.00 82 1018.0
20260901023103 61 220 7.8 0.0 0.00 0.00 0.00 77 1018.0
20260901022052 63 230 10.4 0.0 0.00 0.00 0.00 67
20260901013102 63 230 11.3 0.0 0.00 0.00 0.00 67 1018.0
20260901012055 64 230 12.2 0.0 0.00 0.00 0.00 63
20260901003103 63 220 8.7 0.0 0.00 0.00 0.00 67 1018.0
20260901001851 64 240 12.2 0.0 0.00 0.00 0.00 59
20260831233107 63 230 8.7 0.0 0.00 0.00 0.00 67 1018.0
20260831232024 64 230 10.4 0.0 0.00 0.00 0.00 59
20260831230104 63 230 10.4 0.0 0.00 0.00 0.00 67 1017.0
20260831223102 64 230 10.4 0.0 0.00 0.00 0.00 63 1017.0
20260831222154 66 230 10.4 0.0 0.00 0.00 0.00 59
20260831213103 61 220 7.8 0.0 0.00 0.00 0.00 77 1017.0
20260831211851 64 220 7.8 0.0 0.00 0.00 0.00 63
20260831210103 63 220 7.8 0.0 0.00 0.00 0.00 72 1016.0
20260831203103 63 230 7.8 0.0 0.00 0.00 0.00 72 1016.0
20260831202051 66 220 7.8 0.0 0.00 0.00 0.00 59
20260831200103 64 210 7.8 0.0 0.00 0.00 0.00 67 1016.0
20260831193103 64 210 7.8 0.0 0.00 0.00 0.00 67 1016.0
20260831192055 70 230 7.8 0.0 0.00 0.00 0.00 49
20260831183103 70 250 7.8 0.0 0.00 0.00 0.00 52 1015.0
20260831181852 72 250 7.8 0.0 0.00 0.00 0.00 46
20260831180104 70 250 7.8 0.0 0.00 0.00 0.00 52 1015.0
20260831173102 72 240 11.3 0.0 0.00 0.00 0.00 49 1015.0
20260831172052 73 240 13.9 0.0 0.00 0.00 0.00 43
20260831163102 75 230 13.9 0.0 0.00 0.00 0.00 44 1014.0
20260831162153 75 240 12.2 0.0 0.00 0.00 0.00 44
20260831160103 75 240 13.9 0.0 0.00 0.00 0.00 47 1014.0
20260831153103 75 240 12.2 0.0 0.00 0.00 0.00 47 1015.0
20260831151854 75 250 13.9 0.0 0.00 0.00 0.00 44
20260831151503 73 240 12.2 22.6 0.00 0.00 0.00 46 1015.0
20260831150211 75 240 14.8 0.0 0.00 0.00 0.00 47 1015.0
20260831143102 75 280 11.3 0.0 0.00 0.00 0.00 47 1015.0
20260831141951 73 270 10.4 0.0 0.00 0.00 0.00 46
20260831140104 73 270 8.7 0.0 0.00 0.00 0.00 49 1015.0
20260831133103 75 260 10.4 0.0 0.00 0.00 0.00 50 1015.0
20260831131951 75 260 13.9 0.0 0.00 0.00 0.00 50
20260831123102 72 250 13.9 0.0 0.00 0.00 0.00 56 1015.0
20260831121854 72 240 12.2 0.0 0.00 0.00 0.00 60
20260831120103 70 240 12.2 0.0 0.00 0.00 0.00 64 1015.0
20260831113103 72 240 13.9 0.0 0.00 0.00 0.00 64 1015.0
20260831111950 70 240 15.6 0.0 0.00 0.00 0.00 68
20260831104703 70 230 13.9 0.0 0.00 0.00 0.00 77 1015.0
20260831103103 68 210 7.8 0.0 0.00 0.00 0.00 82 1015.0
20260831102153 66 200 7.8 0.0 0.00 0.00 0.00 82
20260831100103 66 200 10.4 0.0 0.00 0.00 0.00 88 1015.0
20260831094403 66 200 10.4 0.0 0.00 0.00 0.00 88 1015.0
20260831093103 66 190 8.7 0.0 0.00 0.00 0.00 88 1015.0
20260831091852 64 180 6.1 0.0 0.00 0.00 0.00 88
20260831083103 63 220 4.3 0.0 0.00 0.00 0.00 93 1015.0
20260831082024 63 140 1.7 0.0 0.00 0.00 0.00 93
20260831080209 61 100 2.6 0.0 0.00 0.00 0.00 100 1014.0